User: anonymous
Location: Unspecified
(0.0000°N, 0.0000°E)
Time: 03:18:26
(UTC+00:00)
Language:

CHIBIS-M - Orbit

View from above orbital plane
View from above orbital plane
View from above satellite
View from above satellite

Ground track
Ground track

The orbit data is extracted from the following two-line orbital elements,

1 38051U 11062C   14211.80118814  .00074581  00000-0  72083-3 0  7689
2 38051 051.6254 002.3387 0005361 328.4634 180.4510 15.65749341140931
Epoch (UTC): 30 July 2014 19:13:42
Eccentricity: 0.0005361
inclination: 51.6254°
perigee height: 367 km
apogee height: 375 km
right ascension of ascending node: 2.3387°
argument of perigee: 328.4634°
revolutions per day: 15.65749341
mean anomaly at epoch: 180.4510°
orbit number at epoch: 14093

The dashed part of the orbit path shows where the satellite is in the earth's shadow,  

DLR